DW7057 Vars FR current weather conditions

sailwx.info

Wind from 320 at 1 knots gusting 3

Air temperature 15.0° C
Dewpoint 10.6° C

Last reported at 2019-Jun-16 23:02 UTC.
Time now 2019-Jun-17 04:42 UTC

Location: N 45°45' E 000°07'.
View on Google Maps.

See reports from other nearby stations

  
Tides and Currents Weather Stations Pressure Air Temp Water Temp Dewpoint Dewpoint Depression Visibility Wind Speed Wind Dir Waves Ship Positions
date/time (UTC)wind fromknots sea level pressurealtimeterstation pressurevisibilityair tempwater tempwave heightnotes
2019-Jun-16 23:02 320 1 gusting 3 15.0
2019-Jun-16 22:55 307 1 gusting 3 15.0
2019-Jun-16 22:50 309 1 gusting 2 15.0
2019-Jun-16 22:46 300 1 gusting 2 15.0
2019-Jun-16 22:40 302 1 gusting 3 15.0
2019-Jun-16 22:35 312 1 gusting 3 15.6
2019-Jun-16 22:31 311 1 gusting 3 15.6
2019-Jun-16 22:25 298 1 gusting 3 15.6
2019-Jun-16 22:20 307 2 gusting 3 16.1
2019-Jun-16 22:16 311 2 gusting 3 16.1
2019-Jun-16 22:10 309 2 gusting 3 16.1
2019-Jun-16 22:05 308 1 gusting 3 16.1
2019-Jun-16 22:00 321 2 gusting 4 16.1
2019-Jun-16 21:55 311 2 gusting 4 16.1
2019-Jun-16 21:50 318 2 gusting 3 16.7
2019-Jun-16 21:46 308 1 gusting 2 16.7
2019-Jun-16 21:40 312 1 gusting 2 16.7
2019-Jun-16 21:35 320 0 gusting 2 16.7
2019-Jun-16 21:31 319 1 gusting 2 17.2
2019-Jun-16 21:25 323 0 gusting 2 17.2
2019-Jun-16 21:20 323 0 gusting 2 17.2
2019-Jun-16 21:16 327 0 gusting 2 17.2
2019-Jun-16 21:10 326 0 gusting 2 17.2
2019-Jun-16 21:05 338 0 gusting 2 17.2
2019-Jun-16 21:01 354 0 gusting 2 17.8
2019-Jun-16 20:55 322 1 gusting 2 17.8
2019-Jun-16 20:50 318 0 gusting 2 17.8
2019-Jun-16 20:46 318 0 gusting 1 17.8
2019-Jun-16 20:40 318 0 gusting 1 18.3
2019-Jun-16 20:35 316 0 gusting 1 18.3
2019-Jun-16 20:30 316 0 gusting 1 18.3
2019-Jun-16 20:25 316 0 gusting 1 18.9
2019-Jun-16 20:20 300 0 gusting 1 18.9
2019-Jun-16 20:16 295 0 gusting 1 18.9
2019-Jun-16 20:11 233 0 gusting 0 19.4
2019-Jun-16 20:05 233 19.4
2019-Jun-16 20:01 233 0 gusting 0 19.4
2019-Jun-16 19:55 207 20.0
2019-Jun-16 19:50 205 20.0
2019-Jun-16 19:40 205 21.1
2019-Jun-16 19:35 205 21.1
2019-Jun-16 19:31 307 0 gusting 2 21.7
2019-Jun-16 19:25 319 21.7
2019-Jun-16 19:20 334 21.7
2019-Jun-16 19:16 302 0 gusting 3 22.2
2019-Jun-16 19:10 316 1 gusting 3 22.2
2019-Jun-16 19:05 316 1 gusting 3 22.2
2019-Jun-16 19:01 310 2 gusting 4 22.8
2019-Jun-16 18:55 338 0 gusting 3 22.8
2019-Jun-16 18:50 343 1 gusting 4 22.8
2019-Jun-16 18:46 293 1 gusting 3 22.8
2019-Jun-16 18:40 018 1 gusting 5 22.8
2019-Jun-16 18:35 008 2 gusting 5 22.8
2019-Jun-16 18:30 359 0 gusting 4 22.8
2019-Jun-16 18:25 350 2 gusting 4 22.8
2019-Jun-16 18:20 046 0 gusting 4 23.3
2019-Jun-16 18:15 359 1 gusting 5 23.3
2019-Jun-16 18:10 306 0 gusting 4 23.3
2019-Jun-16 18:05 328 0 gusting 4 23.3
2019-Jun-16 18:01 033 1 gusting 5 23.3
2019-Jun-16 17:55 004 3 gusting 5 23.3
2019-Jun-16 17:50 308 0 gusting 4 23.3
2019-Jun-16 17:46 327 0 gusting 4 23.3
2019-Jun-16 17:40 300 1 gusting 4 23.3
2019-Jun-16 17:35 316 1 gusting 6 23.3
2019-Jun-16 17:31 056 2 gusting 6 23.3
2019-Jun-16 17:25 335 1 gusting 5 23.3
2019-Jun-16 17:20 310 2 gusting 5 23.3
2019-Jun-16 17:16 029 0 gusting 6 23.3
2019-Jun-16 17:10 035 2 gusting 6 23.3
2019-Jun-16 17:05 013 1 gusting 6 23.3
2019-Jun-16 17:01 347 3 gusting 6 23.3
2019-Jun-16 16:55 044 2 gusting 5 23.3
2019-Jun-16 16:50 347 23.3
2019-Jun-16 16:46 321 1 gusting 7 23.3
2019-Jun-16 16:40 352 2 gusting 7 23.3
2019-Jun-16 16:35 315 3 gusting 6 23.3
2019-Jun-16 16:32 055 0 gusting 7 23.3
2019-Jun-16 16:25 359 2 gusting 7 23.3
2019-Jun-16 16:20 245 1 gusting 6 23.3
2019-Jun-16 16:16 295 1 gusting 6 23.3
2019-Jun-16 16:10 305 0 gusting 4 23.3
2019-Jun-16 16:05 290 0 gusting 6 23.3
2019-Jun-16 16:01 333 3 gusting 6 23.3
2019-Jun-16 15:55 292 1 gusting 5 23.3
2019-Jun-16 15:50 013 0 gusting 3 23.3
2019-Jun-16 15:45 089 1 gusting 3 23.3
2019-Jun-16 15:40 041 1 gusting 4 23.3
2019-Jun-16 15:35 311 1 gusting 4 23.3
2019-Jun-16 15:30 294 0 gusting 4 23.3
2019-Jun-16 15:25 262 0 gusting 7 22.8
2019-Jun-16 15:20 327 4 gusting 7 22.8
2019-Jun-16 15:15 051 2 gusting 5 23.3
2019-Jun-16 15:10 284 0 gusting 6 23.3
2019-Jun-16 15:05 184 0 gusting 6 22.8
2019-Jun-16 15:01 263 2 gusting 4 22.8
2019-Jun-16 14:55 065 1 gusting 5 22.8
2019-Jun-16 14:50 359 1 gusting 5 22.8
2019-Jun-16 14:46 003 0 gusting 4 22.8
2019-Jun-16 14:40 155 1 gusting 4 22.8
2019-Jun-16 14:35 131 0 gusting 5 22.2
2019-Jun-16 14:31 070 2 gusting 6 22.2
2019-Jun-16 14:25 310 2 gusting 6 22.8
2019-Jun-16 14:20 269 22.2
2019-Jun-16 14:16 084 1 gusting 4 22.2
2019-Jun-16 14:10 078 0 gusting 3 22.2
2019-Jun-16 14:05 124 0 gusting 3 22.2
2019-Jun-16 14:01 342 0 gusting 3 22.2
2019-Jun-16 13:55 270 0 gusting 5 22.2
2019-Jun-16 13:50 019 2 gusting 5 22.2
2019-Jun-16 13:48 032 1 gusting 5 22.2
2019-Jun-16 13:40 038 1 gusting 4 22.8
2019-Jun-16 13:35 127 22.8
2019-Jun-16 13:31 043 1 gusting 6 22.2
2019-Jun-16 13:25 013 0 gusting 6 22.2
2019-Jun-16 13:20 283 2 gusting 6 21.7
2019-Jun-16 13:16 293 3 gusting 6 22.2
2019-Jun-16 13:10 293 1 gusting 5 22.8
2019-Jun-16 13:05 008 1 gusting 5 22.2
2019-Jun-16 13:01 011 1 gusting 3 22.2
2019-Jun-16 12:55 259 22.2
2019-Jun-16 12:50 018 1 gusting 3 22.2
2019-Jun-16 12:46 094 1 gusting 2 22.2
2019-Jun-16 12:40 117 0 gusting 6 22.2
2019-Jun-16 12:35 332 1 gusting 6 21.7
2019-Jun-16 12:31 305 0 gusting 2 21.7
2019-Jun-16 12:25 015 0 gusting 6 21.1
2019-Jun-16 12:20 256 2 gusting 6 21.1
2019-Jun-16 12:16 300 2 gusting 5 21.7
2019-Jun-16 12:10 110 0 gusting 5 21.7
2019-Jun-16 12:05 293 0 gusting 4 21.7
2019-Jun-16 12:01 053 0 gusting 4 21.1
2019-Jun-16 11:55 285 21.1
2019-Jun-16 11:50 293 2 gusting 5 21.1
2019-Jun-16 11:46 274 1 gusting 4 21.1
2019-Jun-16 11:40 321 1 gusting 6 21.1
2019-Jun-16 11:35 281 3 gusting 6 21.1
2019-Jun-16 11:31 097 1 gusting 5 21.1
2019-Jun-16 11:25 319 21.1
2019-Jun-16 11:20 021 0 gusting 4 21.1
2019-Jun-16 11:16 197 1 gusting 4 21.1
2019-Jun-16 11:10 358 1 gusting 4 21.1
2019-Jun-16 11:05 089 0 gusting 3 21.1
2019-Jun-16 11:01 176 1 gusting 3 21.1
2019-Jun-16 10:55 299 21.1
2019-Jun-16 10:50 281 20.0
2019-Jun-16 10:46 005 1 gusting 6 19.4
2019-Jun-16 10:40 047 1 gusting 6 20.0
2019-Jun-16 10:35 056 0 gusting 4 20.0
2019-Jun-16 10:25 254 0 gusting 3 20.6
2019-Jun-16 10:20 148 0 gusting 2 20.0
2019-Jun-16 10:10 079 0 gusting 3 20.0
2019-Jun-16 10:05 066 0 gusting 3 20.6
2019-Jun-16 10:00 139 0 gusting 3 20.6
2019-Jun-16 09:55 114 0 gusting 4 20.0
2019-Jun-16 09:50 120 0 gusting 4 20.0
2019-Jun-16 09:45 227 0 gusting 6 19.4
2019-Jun-16 09:40 097 2 gusting 6 19.4
2019-Jun-16 09:35 106 1 gusting 5 19.4
2019-Jun-16 09:30 086 1 gusting 4 19.4
2019-Jun-16 09:20 235 18.9
2019-Jun-16 09:17 042 0 gusting 4 18.9
2019-Jun-16 09:11 224 0 gusting 4 18.3
2019-Jun-16 09:06 077 0 gusting 3 18.3
2019-Jun-16 09:02 133 0 gusting 6 18.3
2019-Jun-16 08:56 081 3 gusting 6 17.8
2019-Jun-16 08:50 013 0 gusting 2 17.8
2019-Jun-16 08:47 016 18.3
2019-Jun-16 08:40 069 1 gusting 4 18.3
2019-Jun-16 08:35 128 18.3
2019-Jun-16 08:31 093 0 gusting 3 17.8
2019-Jun-16 08:25 118 17.8
2019-Jun-16 08:20 053 0 gusting 3 17.2
2019-Jun-16 08:16 065 16.7
2019-Jun-16 08:10 058 0 gusting 3 17.2
2019-Jun-16 08:05 065 1 gusting 4 17.2
2019-Jun-16 08:01 065 0 gusting 4 16.7
2019-Jun-16 07:55 077 16.7
2019-Jun-16 07:50 049 0 gusting 4 16.7
2019-Jun-16 07:46 113 1 gusting 3 16.1
2019-Jun-16 07:40 062 0 gusting 3 15.6
2019-Jun-16 07:35 076 0 gusting 2 16.1
2019-Jun-16 07:31 130 0 gusting 3 16.1
2019-Jun-16 07:25 113 1 gusting 4 15.6
2019-Jun-16 07:20 071 1 gusting 4 15.6
2019-Jun-16 07:16 118 1 gusting 4 15.0
2019-Jun-16 07:10 096 2 gusting 4 15.0
2019-Jun-16 07:05 094 2 gusting 5 15.0
2019-Jun-16 07:00 108 2 gusting 5 15.0
2019-Jun-16 06:55 096 0 gusting 3 14.4
2019-Jun-16 06:50 116 0 gusting 4 13.9
2019-Jun-16 06:45 124 1 gusting 4 13.9
2019-Jun-16 06:40 115 0 gusting 2 13.3
2019-Jun-16 06:35 120 12.8
2019-Jun-16 06:30 099 0 gusting 2 12.8
2019-Jun-16 06:25 088 0 gusting 2 12.8
2019-Jun-16 06:20 076 0 gusting 2 12.8
2019-Jun-16 06:16 083 0 gusting 1 12.8
2019-Jun-16 06:10 115 0 gusting 1 12.2
2019-Jun-16 06:05 112 0 gusting 1 12.2
2019-Jun-16 06:01 103 11.7
2019-Jun-16 05:55 089 0 gusting 1 11.7
2019-Jun-16 05:50 103 11.1
2019-Jun-16 05:47 089 0 gusting 1 11.1
2019-Jun-16 05:40 107 11.1
2019-Jun-16 05:35 107 11.1
2019-Jun-16 05:31 119 10.6
2019-Jun-16 05:25 095 10.6
2019-Jun-16 05:20 091 0 gusting 1 10.0
2019-Jun-16 05:15 094 10.0
2019-Jun-16 05:10 111 10.0
2019-Jun-16 05:05 103 9.4
2019-Jun-16 05:01 096 9.4
2019-Jun-16 04:55 091 9.4
2019-Jun-16 04:50 090 9.4
2019-Jun-16 04:46 089 8.9
2019-Jun-16 04:40 087 8.9
2019-Jun-16 04:36 101 8.3
2019-Jun-16 04:31 101 8.3
2019-Jun-16 04:20 101 8.3
2019-Jun-16 04:16 101 8.3
2019-Jun-16 04:10 101 8.3
2019-Jun-16 04:05 101 8.3
2019-Jun-16 04:01 101 8.9
2019-Jun-16 03:55 101 8.9
2019-Jun-16 03:50 101 8.9
2019-Jun-16 03:47 101 8.9
2019-Jun-16 03:40 101 8.3
2019-Jun-16 03:35 101 8.3
2019-Jun-16 03:32 101 8.9
2019-Jun-16 03:25 101 8.9
2019-Jun-16 03:20 101 8.9
2019-Jun-16 03:17 101 8.9
2019-Jun-16 03:10 100 8.9
2019-Jun-16 03:05 100 8.9
2019-Jun-16 03:01 100 8.9
2019-Jun-16 02:55 100 8.9
2019-Jun-16 02:50 100 8.9
2019-Jun-16 02:47 100 8.9
2019-Jun-16 02:40 100 8.9
2019-Jun-16 02:35 100 8.9
2019-Jun-16 02:31 104 0 gusting 0 8.9
2019-Jun-16 02:25 070 9.4
2019-Jun-16 02:20 070 8.9
2019-Jun-16 02:16 070 8.9
2019-Jun-16 02:10 070 8.9
2019-Jun-16 02:05 070 8.9
2019-Jun-16 02:01 070 8.9
2019-Jun-16 01:55 070 8.9
2019-Jun-16 01:50 070 9.4
2019-Jun-16 01:46 070 9.4
2019-Jun-16 01:40 070 9.4
2019-Jun-16 01:35 070 9.4
2019-Jun-16 01:32 070 9.4
2019-Jun-16 01:25 070 9.4
2019-Jun-16 01:20 070 9.4
2019-Jun-16 01:16 070 9.4
2019-Jun-16 01:10 070 10.0
2019-Jun-16 01:05 070 10.0
2019-Jun-16 01:01 065 10.0
2019-Jun-16 00:55 065 10.0
2019-Jun-16 00:50 065 10.0
2019-Jun-16 00:46 065 10.0
2019-Jun-16 00:40 065 10.0
2019-Jun-16 00:35 058 10.0
2019-Jun-16 00:31 058 10.0
2019-Jun-16 00:25 058 10.0
2019-Jun-16 00:20 058 10.0
2019-Jun-16 00:15 058 10.0
2019-Jun-16 00:10 058 10.0
2019-Jun-16 00:05 058 10.0
2019-Jun-16 00:01 058 10.6
2019-Jun-15 23:55 058 10.6
2019-Jun-15 23:50 058 10.6
2019-Jun-15 23:46 058 10.6
2019-Jun-15 23:40 058 10.6
2019-Jun-15 23:35 058 10.6
2019-Jun-15 23:31 058 10.6
2019-Jun-15 23:25 058 0 gusting 0 10.6
2019-Jun-15 23:20 265 10.6
2019-Jun-15 23:15 265 10.6
2019-Jun-15 23:10 265 10.6
2019-Jun-15 23:05 266 10.6
2019-Jun-15 23:00 266 10.6
2019-Jun-15 22:55 266 11.1
2019-Jun-15 22:50 265 11.1
2019-Jun-15 22:45 266 11.1
2019-Jun-15 22:40 265 11.1
2019-Jun-15 22:35 265 11.1
2019-Jun-15 22:30 266 11.1
2019-Jun-15 22:25 266 11.7
2019-Jun-15 22:15 266 11.7
2019-Jun-15 22:10 265 11.7
2019-Jun-15 22:05 265 12.2
2019-Jun-15 21:55 265 12.2
2019-Jun-15 21:50 266 12.8
2019-Jun-15 21:40 265 12.8
2019-Jun-15 21:35 265 12.8
2019-Jun-15 21:30 265 12.8
2019-Jun-15 21:25 265 12.8
2019-Jun-15 21:16 265 12.8
2019-Jun-15 21:10 265 12.8
2019-Jun-15 21:05 265 13.3
2019-Jun-15 21:01 265 13.3
2019-Jun-15 20:55 265 13.3
2019-Jun-15 20:50 265 13.3
2019-Jun-15 20:46 265 13.3
2019-Jun-15 20:40 265 13.9
2019-Jun-15 20:35 265 13.9
2019-Jun-15 20:30 265 14.4
2019-Jun-15 20:25 265 14.4
2019-Jun-15 20:20 265 14.4
2019-Jun-15 20:16 265 15.0
2019-Jun-15 20:10 265 15.0
2019-Jun-15 20:05 265 15.6
2019-Jun-15 20:00 265 15.6
2019-Jun-15 19:55 271 15.6
2019-Jun-15 19:50 271 0 gusting 2 16.1
2019-Jun-15 19:46 280 0 gusting 2 16.1
2019-Jun-15 19:40 276 0 gusting 2 16.7
2019-Jun-15 19:35 276 1 gusting 5 16.7
2019-Jun-15 19:31 261 1 gusting 5 17.2
2019-Jun-15 19:25 269 1 gusting 5 17.2
2019-Jun-15 19:20 250 0 gusting 4 17.8
2019-Jun-15 19:16 277 1 gusting 4 17.8
2019-Jun-15 19:10 247 1 gusting 7 17.8
2019-Jun-15 19:05 243 2 gusting 7 17.8
2019-Jun-15 19:01 224 2 gusting 7 18.3
2019-Jun-15 18:55 259 3 gusting 7 18.3
2019-Jun-15 18:50 234 2 gusting 6 18.3
2019-Jun-15 18:46 285 4 18.3
2019-Jun-15 18:40 257 3 gusting 9 18.3
2019-Jun-15 18:35 287 3 gusting 9 18.9
2019-Jun-15 18:31 267 3 gusting 8 18.9
2019-Jun-15 18:25 283 5 gusting 9 18.9
2019-Jun-15 18:20 293 4 gusting 9 18.9
2019-Jun-15 18:16 264 5 gusting 10 18.9
2019-Jun-15 18:10 259 4 gusting 10 18.9
2019-Jun-15 18:05 283 4 gusting 9 19.4
2019-Jun-15 18:00 291 2 gusting 9 19.4
2019-Jun-15 17:55 281 3 gusting 12 19.4
2019-Jun-15 17:50 266 5 gusting 12 19.4
2019-Jun-15 17:45 259 6 gusting 11 19.4
2019-Jun-15 17:40 286 5 gusting 11 20.0
2019-Jun-15 17:35 264 5 gusting 13 20.0
2019-Jun-15 17:32 221 4 gusting 13 20.0
2019-Jun-15 17:25 245 3 gusting 10 20.0
2019-Jun-15 17:20 278 4 gusting 10 20.0
2019-Jun-15 17:16 252 4 gusting 10 20.0
2019-Jun-15 17:10 281 6 gusting 10 20.0
2019-Jun-15 17:05 267 6 gusting 10 20.0
2019-Jun-15 17:00 263 6 gusting 11 20.0
2019-Jun-15 16:55 257 6 gusting 10 20.0
2019-Jun-15 16:50 264 4 gusting 11 20.0
2019-Jun-15 16:46 280 6 gusting 11 20.0
2019-Jun-15 16:40 262 5 gusting 13 20.0
2019-Jun-15 16:35 228 5 gusting 14 20.0
2019-Jun-15 16:31 274 7 gusting 14 20.0
2019-Jun-15 16:25 282 7 gusting 13 20.6
2019-Jun-15 16:20 232 6 gusting 13 20.6
2019-Jun-15 16:16 273 6 gusting 12 20.6
2019-Jun-15 16:10 271 5 gusting 13 20.6
2019-Jun-15 16:05 285 7 gusting 13 20.6
2019-Jun-15 16:01 247 4 gusting 13 20.0
2019-Jun-15 15:55 292 7 gusting 13 20.6
2019-Jun-15 15:50 282 6 gusting 12 20.6
2019-Jun-15 15:45 244 5 gusting 11 20.6
2019-Jun-15 15:40 222 6 gusting 11 20.6
2019-Jun-15 15:35 250 6 gusting 10 20.6
2019-Jun-15 15:32 245 5 gusting 10 20.6
2019-Jun-15 15:25 248 4 gusting 11 20.6
2019-Jun-15 15:20 268 5 gusting 12 21.1
2019-Jun-15 15:15 252 6 gusting 12 21.1
2019-Jun-15 15:10 219 5 gusting 11 21.1
2019-Jun-15 15:05 263 6 gusting 12 21.1
2019-Jun-15 15:01 291 7 gusting 12 21.1
2019-Jun-15 14:55 238 1 gusting 10 21.1
2019-Jun-15 14:50 243 5 gusting 12 21.1
2019-Jun-15 14:46 211 3 gusting 12 21.1
2019-Jun-15 14:40 229 2 gusting 9 21.1
2019-Jun-15 14:35 237 3 gusting 11 21.1
2019-Jun-15 14:31 240 5 gusting 13 20.6
2019-Jun-15 14:25 250 5 gusting 13 21.1
2019-Jun-15 14:20 244 6 gusting 12 21.1
2019-Jun-15 14:16 281 5 gusting 10 21.1
2019-Jun-15 14:10 276 6 gusting 11 21.1
2019-Jun-15 14:05 261 6 gusting 11 21.1
2019-Jun-15 14:01 283 6 gusting 11 21.1
2019-Jun-15 13:55 259 2 gusting 10 21.7
2019-Jun-15 13:50 219 4 gusting 12 21.1
2019-Jun-15 13:46 244 5 gusting 12 21.1
2019-Jun-15 13:40 264 5 gusting 11 21.1
2019-Jun-15 13:35 263 4 gusting 12 21.1
2019-Jun-15 13:31 259 5 gusting 13 20.6
2019-Jun-15 13:25 250 5 gusting 12 20.6
2019-Jun-15 13:20 243 6 gusting 12 20.6
2019-Jun-15 13:16 300 4 gusting 10 21.1
2019-Jun-15 13:10 285 4 gusting 10 21.1
2019-Jun-15 13:05 218 6 gusting 11 21.1
2019-Jun-15 13:01 232 5 gusting 11 21.1
2019-Jun-15 12:55 231 4 gusting 11 20.6
2019-Jun-15 12:50 291 5 gusting 12 20.6
2019-Jun-15 12:46 259 7 gusting 12 20.6
2019-Jun-15 12:35 285 4 gusting 9 20.6
2019-Jun-15 12:31 274 4 gusting 9 21.1
2019-Jun-15 12:25 237 4 gusting 9 20.0
2019-Jun-15 12:20 285 3 gusting 8 19.4
2019-Jun-15 12:16 248 2 gusting 8 20.0
2019-Jun-15 12:10 252 4 gusting 9 20.0
2019-Jun-15 12:05 226 4 gusting 8 20.0
2019-Jun-15 12:00 275 4 gusting 8 19.4
2019-Jun-15 11:55 279 2 gusting 6 19.4
2019-Jun-15 11:50 278 3 gusting 6 19.4
2019-Jun-15 11:46 266 2 gusting 6 18.9
2019-Jun-15 11:40 303 3 gusting 10 18.9
2019-Jun-15 11:35 219 4 gusting 10 18.9
2019-Jun-15 11:31 193 1 gusting 7 18.9
2019-Jun-15 11:25 274 1 gusting 7 18.9
2019-Jun-15 11:20 270 1 gusting 6 19.4
2019-Jun-15 11:16 269 0 gusting 6 18.9
2019-Jun-15 11:10 244 2 gusting 9 18.9
2019-Jun-15 11:05 238 0 gusting 7 19.4
2019-Jun-15 11:01 257 2 gusting 7 19.4
2019-Jun-15 10:55 147 0 gusting 8 19.4
2019-Jun-15 10:50 244 2 gusting 8 18.9
2019-Jun-15 10:46 267 2 gusting 5 18.9
2019-Jun-15 10:40 210 2 gusting 7 18.9
2019-Jun-15 10:35 236 2 gusting 7 18.3
2019-Jun-15 10:31 252 3 gusting 8 18.3
2019-Jun-15 10:25 279 2 gusting 7 18.3
2019-Jun-15 10:20 272 3 gusting 7 18.3
2019-Jun-15 10:16 261 2 gusting 6 18.3
2019-Jun-15 10:10 252 1 gusting 4 18.3
2019-Jun-15 10:05 219 18.3
2019-Jun-15 10:01 285 2 gusting 4 17.8
2019-Jun-15 09:55 252 1 gusting 6 17.2
2019-Jun-15 09:50 269 3 gusting 7 17.2
2019-Jun-15 09:45 283 1 gusting 6 17.8
2019-Jun-15 09:40 267 3 gusting 6 17.8
2019-Jun-15 09:35 240 2 gusting 6 17.8
2019-Jun-15 09:30 183 0 gusting 5 17.8
2019-Jun-15 09:25 234 2 gusting 5 17.2
2019-Jun-15 09:20 217 0 gusting 4 16.7
2019-Jun-15 09:15 223 0 gusting 4 16.7
2019-Jun-15 09:10 222 1 gusting 5 16.7
2019-Jun-15 09:05 132 16.7
2019-Jun-15 09:00 276 2 gusting 6 16.1
2019-Jun-15 08:55 149 2 gusting 6 16.1
2019-Jun-15 08:50 285 1 gusting 3 16.1
2019-Jun-15 08:45 249 16.1
2019-Jun-15 08:40 246 0 16.1
2019-Jun-15 08:35 276 16.1
2019-Jun-15 08:30 285 1 gusting 4 16.1
2019-Jun-15 08:25 229 1 gusting 5 16.1
2019-Jun-15 08:20 225 1 gusting 5 15.6
2019-Jun-15 08:15 250 3 gusting 6 15.6
2019-Jun-15 08:05 284 5 gusting 6 15.6
2019-Jun-15 08:00 281 3 gusting 6 15.6
2019-Jun-15 07:55 271 4 gusting 6 15.6
2019-Jun-15 07:50 269 2 gusting 5 16.1
2019-Jun-15 07:46 275 2 gusting 5 16.1
2019-Jun-15 07:40 292 1 gusting 4 16.1
2019-Jun-15 07:35 285 1 gusting 5 16.1
2019-Jun-15 07:30 288 0 gusting 5 16.1
2019-Jun-15 07:25 264 1 gusting 4 16.1
2019-Jun-15 07:20 257 1 gusting 4 15.6
2019-Jun-15 07:15 243 0 gusting 5 15.0
2019-Jun-15 07:10 278 1 gusting 5 15.0
2019-Jun-15 07:05 275 1 gusting 4 15.0
2019-Jun-15 06:55 291 0 gusting 2 15.0
2019-Jun-15 06:50 255 0 gusting 3 15.0
2019-Jun-15 06:45 132 0 gusting 3 14.4
2019-Jun-15 06:40 268 14.4
2019-Jun-15 06:35 124 14.4
2019-Jun-15 06:30 231 13.9
2019-Jun-15 06:25 162 13.9
2019-Jun-15 06:20 130 13.9
2019-Jun-15 06:05 153 13.3
2019-Jun-15 06:00 092 13.3
2019-Jun-15 05:55 143 13.3
2019-Jun-15 05:50 150 13.3
2019-Jun-15 05:40 122 13.3
2019-Jun-15 05:35 120 12.8
2019-Jun-15 05:25 120 12.8
2019-Jun-15 05:20 177 12.8
2019-Jun-15 05:10 060 12.8
2019-Jun-15 05:05 059 12.8
2019-Jun-15 05:00 059 12.8
2019-Jun-15 04:55 059 12.8
2019-Jun-15 04:50 060 12.8
2019-Jun-15 04:45 059 0 gusting 1 12.8
2019-Jun-15 04:40 049 0 gusting 1 12.8
2019-Jun-15 04:35 273 12.8
2019-Jun-15 04:26 272 13.3
2019-Jun-15 04:21 272 13.3
2019-Jun-15 04:16 273 13.3
2019-Jun-15 04:11 272 13.3
2019-Jun-15 04:05 272 13.3
2019-Jun-15 04:01 272 13.3